This demonstration page uses our WeatherBlox Daily Observations layout. Learn more.

41.55636, -103.73856

Hourly Observations for July 5, 2019

Temp ( °F °C ) Dew Point ( °F °C ) Humidity (%) Winds ( mph kmh ) Pressure ( in mb ) Visibility ( mi km ) Precip ( " mm )
12:00 am 00:00 Mostly Cloudy 70 21 N/A N/A SE 8 13 29.83 1010 9 14.484096 0 0
12:53 am 00:53 Mostly Clear 70 21 N/A N/A NW 7 11 29.91 1013 8 12.874752 0 0
1:25 am 01:25 Mostly Cloudy 64 18 N/A N/A N 24 39 29.94 1014 10 16.09344 0 0
1:43 am 01:43 Cloudy 64 18 N/A N/A NNE 24 39 29.91 1013 10 16.09344 0 0
1:53 am 01:53 Mostly Cloudy 63 17 N/A N/A NNE 23 37 29.91 1013 10 16.09344 0 0
2:53 am 02:53 Clear 61 16 N/A N/A ENE 13 20 29.94 1014 10 16.09344 0 0
3:53 am 03:53 Cloudy 61 16 N/A N/A N 7 11 30 1016 10 16.09344 0 0
4:53 am 04:53 Partly Cloudy 57 14 N/A N/A E 3 6 30.03 1017 10 16.09344 0 0
5:53 am 05:53 Mostly Sunny 57 14 N/A N/A N 5 7 30.03 1017 10 16.09344 0 0
6:53 am 06:53 Sunny 61 16 N/A N/A SSE 8 13 30.03 1017 10 16.09344 0 0
7:39 am 07:39 Mostly Cloudy 63 17 N/A N/A S 5 7 30.03 1017 10 16.09344 0 0
7:53 am 07:53 Mostly Cloudy 63 17 N/A N/A Calm 30.06 1018 10 16.09344 0 0
8:36 am 08:36 Mostly Cloudy 64 18 N/A N/A SSW 6 9 30.03 1017 10 16.09344 0 0
8:53 am 08:53 Cloudy 64 18 N/A N/A S 3 6 30.09 1019 10 16.09344 0 0
9:02 am 09:02 Cloudy 64 18 N/A N/A Calm 30.03 1017 10 16.09344 0 0
9:11 am 09:11 Cloudy 66 19 N/A N/A S 3 6 30.03 1017 10 16.09344 0 0
9:53 am 09:53 Cloudy 68 20 N/A N/A SSE 7 11 30.06 1018 10 16.09344 0 0
10:53 am 10:53 Partly Cloudy 73 23 N/A N/A SSE 9 15 30.06 1018 10 16.09344 0 0
11:53 am 11:53 Cloudy 75 24 N/A N/A SE 9 15 30.06 1018 10 16.09344 0 0
12:53 pm 12:53 Mostly Cloudy 79 26 N/A N/A S 9 15 30.03 1017 10 16.09344 0 0
1:53 pm 13:53 Mostly Cloudy 81 27 N/A N/A S 12 19 30.03 1017 10 16.09344 0 0
2:53 pm 14:53 Mostly Cloudy 81 27 N/A N/A S 10 17 30 1016 10 16.09344 0 0
3:53 pm 15:53 Sunny 79 26 N/A N/A SSE 14 22 30 1016 10 16.09344 0 0
4:53 pm 16:53 Sunny 82 28 N/A N/A SSE 10 17 29.97 1015 10 16.09344 0 0
5:53 pm 17:53 Sunny 86 30 N/A N/A WSW 6 9 29.97 1015 10 16.09344 0 0
6:53 pm 18:53 Sunny 82 28 N/A N/A NNW 7 11 30 1016 10 16.09344 0 0
7:53 pm 19:53 Sunny 73 23 N/A N/A NE 7 11 30.03 1017 10 16.09344 0 0
8:30 pm 20:30 Mostly Cloudy with Nearby Thunderstorms 73 23 N/A N/A NNE 9 15 29.94 1014 10 16.09344 0 0
8:50 pm 20:50 Cloudy with Light Thunderstorms 70 21 N/A N/A NE 13 20 29.97 1015 10 16.09344 0 0
8:51 pm 20:51 Cloudy with Light Thunderstorms 70 21 N/A N/A NE 12 19 30.06 1018 10 16.09344 0.01 0.254
8:57 pm 20:57 Cloudy with Light Thunderstorms 70 21 N/A N/A NW 17 28 30 1016 2.5 4.02336 0 0
9:04 pm 21:04 Cloudy with Thunderstorms 64 18 N/A N/A NW 14 22 30.06 1018 4 6.437376 0 0
9:30 pm 21:30 Mostly Cloudy with Nearby Thunderstorms 66 19 N/A N/A NE 12 19 30.03 1017 10 16.09344 0 0
9:53 pm 21:53 Clear 66 19 N/A N/A VRB 5 7 30.12 1020 10 16.09344 0.04 1.016
10:53 pm 22:53 Mostly Clear 64 18 N/A N/A Calm 30.12 1020 10 16.09344 0 0
11:53 pm 23:53 Partly Cloudy 64 18 N/A N/A ESE 3 6 30.15 1021 10 16.09344 0 0

Powered by AerisWeather